Погода в Байкалове

Россия / Тюменская область     57°46′32″N   67°38′24″E
темп.,
°C
ветер,
м/с
пор.,
м/с
влажн.,
%
обл.,
%
осадки,
мм/ч
давл.,
гПа
погр.,
м
9 мая, вс
вс923:00+15ю1241100 0.0 101620
02:00+14вюв3547100 0.0 101677
05:00+12в3762100 0.0 1017128
08:00+16вюв5953100 0.0 1018423
11:00+21вюв5737100 0.0 10191042
14:00+23в562999 0.0 10192156
17:00+22в673195 0.0 10191965
20:00+17всв51042100 0.0 1021465
10 мая, пн
пн1023:00+14в41151100 0.0 1022503
02:00+11всв395267 0.0 1023344
05:00+9всв3959100 0.0 1025261
08:00+13в4843100 0.0 1026665
11:00+17в463062 0.0 10261482
14:00+19всв45285 0.0 10251865
17:00+20всв45270 0.0 10251953
20:00+16в22400 0.0 102627
11 мая, вт
вт1123:00+12вюв22500 0.0 102718
02:00+10вюв11570 0.0 102710
05:00+9с00600 0.0 102810
08:00+15в00414 0.0 1028332
11:00+20ссз11295 0.0 10281440
14:00+22з122494 0.0 10271792
17:00+22з3323100 0.0 10261900
20:00+18зюз2235100 0.0 102627
12 мая, ср
ср1223:00+14з344785 0.0 102648
02:00+14зсз2751100 0.0 1025164
05:00+13ссз4979100 0.0 1026554
08:00+14с5751100 0.0 1027761
11:00+16с5733100 0.0 10271241
14:00+15ссз463871 0.0 10271172
17:00+11с2667100 0.2 1028277
20:00+12ссз3764100 0.0 1028519
13 мая, чт
чт1323:00+9ссз227899 0.0 102731
02:00+7зсз11838 0.0 102711
05:00+7з228596 0.0 102732
08:00+13зюз3463100 0.0 1026362
11:00+18з4655100 0.0 1024735
14:00+23зсз4841100 0.0 10222466
17:00+22ссз51047100 0.0 10232044
20:00+17с410586 0.0 1025669